Orbital Elements at Epoch 2459000.5 (2020-May-31.0) TDB
Reference: JPL 26 (heliocentric ecliptic J2000)
Element | Value | Uncertainty (1-sigma) | Units |
e | .06255600769146093 | 4.5828e-08 | |
a | 2.982109817750655 | 1.6009e-08 | au |
q | 2.795560933054663 | 1.3651e-07 | au |
i | 10.67828427476743 | 6.8948e-06 | deg |
node | 174.5339351457308 | 2.035e-05 | deg |
peri | 61.79452381591287 | 5.243e-05 | deg |
M | 168.4604714190937 | 4.9466e-05 | deg |
tp | 2458120.304008144911 (2018-Jan-01.80400814) | 0.00025647 | TDB |
period | 1880.978691312846 5.15 | 1.5146e-05 4.147e-08 | d yr |
n | .1913897279446238 | 1.5411e-09 | deg/d |
Q | 3.168658702446645 | 1.701e-08 | au |
|
| | Orbit Determination Parameters
Additional Information
|